Regional Weather Roundup
Issued by NWS Nashville, TN

Home | Current Version | Previous Version | Text Only | Print | Product List | Glossary On
Versions: 1 2 3 4 5 6 7 8 9 10 11 12 13 14 15 16 17 18 19 20 21 22 23 24 25 26 27 28 29 30 31 32 33 34 35 36 37 38 39 40 41 42 43 44 45 46 47 48 49 50
000
ASUS44 KOHX 262115
RWROHX
MIDDLE TENNESSEE HOURLY WEATHER ROUNDUP
NATIONAL WEATHER SERVICE NASHVILLE TN
300 PM CST MON JAN 26 2015

NOTE: "FAIR" INDICATES FEW OR NO CLOUDS BELOW 12,000 FEET WITH
NO SIGNIFICANT WEATHER AND/OR OBSTRUCTIONS TO VISIBILITY.

* THESE REPORTS ARE NOT UNDER NWS QUALITY CONTROL AND MAY NOT
  REPORT WEATHER SUCH AS PRECIPITATION AND FOG.


TNZ005>011-023>034-057-059-062>066-078-080-262200
...NORTHERN MIDDLE TENNESSEE...

CITY           SKY/WX    TMP DP  RH WIND       PRES   REMARKS
CLARKSVILLE    CLOUDY    37  26  64 W8        29.96R WCI  31
CROSSVILLE     CLOUDY    29  26  89 NW8       29.87S WCI  21
GALLATIN       CLOUDY    33  29  86 W5        29.95F WCI  28
DICKSON        PTSUNNY   36  27  69 W10       29.93F WCI  28
LEBANON        CLOUDY    32  27  82 W6        29.94S WCI  26
LIVINGSTON     CLOUDY    29  27  92 W6        29.90S WCI  23
NASHVILLE      CLOUDY    35  29  78 W8        29.96S WCI  29
WEST NASHVILLE CLOUDY    34  28  80 W7        29.96F WCI  28
PORTLAND       CLOUDY    28  27  93 W7        29.93S WCI  21
SMYRNA         CLOUDY    35  29  79 NW7       29.97F WCI  29
SPARTA         CLOUDY    30  28  93 NW5       29.91F WCI  25
$$
TNZ056-058-060-061-075>077-079-093>097-262200
...SOUTHERN MIDDLE TENNESSEE...

CITY           SKY/WX    TMP DP  RH WIND       PRES   REMARKS
COLUMBIA       MOSUNNY   41  32  70 W8        29.93F
LEWISBURG      CLOUDY    37  29  73 W6        29.95F WCI  32
MCMINNVILLE    CLOUDY    30  30 100 W5        29.92F WCI  25
MURFREESBORO   CLOUDY    35  28  76 NW5       29.95F WCI  31
SHELBYVILLE    CLOUDY    37  30  75 W10       29.96S WCI  30
TULLAHOMA      CLOUDY    34  27  75 W9        29.94F WCI  26
WINCHESTER     CLOUDY    34  28  80 W8        29.94F WCI  27
$$


...KEY TO REMARKS...
VSB - VISIBILITY IN MILES
WCI - WIND CHILL INDEX
HX  - HEAT INDEX




USA.gov is the U.S. government's official web portal to all federal, state and local government web resources and services.